Terminal Aerodrome Forecast
Issued by NWS

Home | Current Version | Previous Version | Text Only | Print | Product List | Glossary On
Versions: 1 2 3 4 5 6 7 8 9 10 11 12 13 14 15 16 17 18 19 20 21 22 23 24 25 26 27 28 29 30 31 32 33 34 35 36 37 38 39 40 41 42 43
000
FTUS46 KOTX 280233 AAA
TAFSFF
TAF AMD
KSFF 280233Z 2803/2824 23012KT P6SM SCT050 BKN080 WS015/23040KT
     FM281600 21012KT P6SM -RA OVC050
     FM282200 23017G27KT P6SM -SHRA BKN040 OVC080=

USA.gov is the U.S. government's official web portal to all federal, state and local government web resources and services.